Branson, MO

3:10 PM CST on December 18, 2017 (GMT -0600)
Branson

Weather History for KBBG - January, 2013

Change the Weather History Date:

Monday, January 14, 2013

  Actual Average (KHRO) Record (KHRO)
Temperature  
Mean Temperature 20 °F -  
Max Temperature 28 °F 43 °F 76 °F (1928)
Min Temperature 12 °F 24 °F -5 °F (1979)
Degree Days  
Heating Degree Days 45    
Moisture  
Dew Point 12 °F    
Average Humidity 74    
Maximum Humidity 93    
Minimum Humidity 47    
Precipitation  
Precipitation 0.00 in - - ()
Sea Level Pressure  
Sea Level Pressure 30.35 in    
Wind  
Wind Speed 2 mph (NE)    
Max Wind Speed 10 mph    
Max Gust Speed -    
Visibility 10 miles    
Events      
Averages and records for this station are not official NWS values.
T = Trace of Precipitation, MM = Missing Value Source: NWS Daily Summary

Daily Weather History Graph

Daily Weather History Graph

Search for Another Location

Airport or City:

Trip Planner

Search our weather history database for the weather conditions in past years. The results will help you decide how hot, cold, wet, or windy it might be!

Date:

Astronomy

Jan. 14, 2013 Rise Set
Actual Time 7:24 AM CST 5:20 PM CST
Civil Twilight 6:55 AM CST 5:48 PM CST
Nautical Twilight 6:24 AM CST 6:20 PM CST
Astronomical Twilight 5:53 AM CST 6:51 PM CST
Moon 9:04 AM CST (1/14) 8:58 PM CST (1/14)
Length of Visible Light 10h 52m
Length of Day
9h 56m
Waxing Crescent, 11% of the Moon is Illuminated
Jan 14
Waxing Crescent
Jan 18
First Quarter
Jan 26
Full
Feb 3
Last Quarter
Feb 10
New

Hourly Weather History & Observations

Time (CST) Temp. Windchill Dew Point Humidity Pressure Visibility Wind Dir Wind Speed Gust Speed Precip Events Conditions
12:15 AM 15.8 °F - 14.0 °F 93% 30.34 in 10.0 mi Calm Calm - N/A   Clear
12:55 AM 15.8 °F - 12.2 °F 86% 30.36 in 10.0 mi Calm Calm - N/A   Clear
1:35 AM 15.8 °F 8.6 °F 12.2 °F 86% 30.36 in 10.0 mi NW 4.6 mph - N/A   Clear
1:55 AM 15.8 °F 8.6 °F 12.2 °F 86% 30.37 in 10.0 mi NW 4.6 mph - N/A   Clear
2:15 AM 15.8 °F - 12.2 °F 86% 30.37 in 10.0 mi Calm Calm - N/A   Clear
2:35 AM 14.0 °F - 10.4 °F 86% 30.37 in 10.0 mi Calm Calm - N/A   Clear
2:55 AM 15.8 °F - 10.4 °F 79% 30.37 in 10.0 mi Calm Calm - N/A   Clear
3:15 AM 14.0 °F - 10.4 °F 86% 30.37 in 10.0 mi Calm Calm - N/A   Clear
3:35 AM 15.8 °F 10.2 °F 10.4 °F 79% 30.36 in 10.0 mi NNW 3.5 mph - N/A   Clear
3:55 AM 14.0 °F - 10.4 °F 86% 30.35 in 10.0 mi Calm Calm - N/A   Clear
4:15 AM 14.0 °F - 10.4 °F 86% 30.34 in 10.0 mi Calm Calm - N/A   Clear
4:55 AM 15.8 °F - 10.4 °F 79% 30.33 in 10.0 mi Calm Calm - N/A   Clear
5:15 AM 15.8 °F - 10.4 °F 79% 30.31 in 10.0 mi Calm Calm - N/A   Clear
5:35 AM 15.8 °F - 10.4 °F 79% 30.32 in 10.0 mi Calm Calm - N/A   Clear
6:46 AM 12.2 °F - 8.6 °F 85% 30.36 in 10.0 mi Calm Calm - N/A   Partly Cloudy
7:52 AM 15.8 °F - 12.2 °F 86% 30.41 in 10.0 mi Calm Calm - N/A   Mostly Cloudy
8:47 AM 17.6 °F - 12.2 °F 79% 30.40 in 10.0 mi Calm Calm - N/A   Overcast
9:46 AM 19.4 °F 10.4 °F 14.0 °F 80% 30.46 in 10.0 mi SE 6.9 mph - N/A   Overcast
10:46 AM 19.4 °F 10.4 °F 10.4 °F 68% 30.45 in 10.0 mi East 6.9 mph - N/A   Mostly Cloudy
11:49 AM 21.2 °F 10.1 °F 12.2 °F 68% 30.42 in 10.0 mi NNE 10.4 mph - N/A   Mostly Cloudy
12:50 PM 23.0 °F 13.1 °F 10.4 °F 59% 30.38 in 10.0 mi North 9.2 mph - N/A   Scattered Clouds
1:53 PM 26.6 °F 20.0 °F 10.4 °F 51% 30.35 in 10.0 mi NE 5.8 mph - N/A   Partly Cloudy
3:45 PM 28.4 °F 21.2 °F 10.4 °F 47% 30.35 in 10.0 mi East 6.9 mph - N/A   Partly Cloudy
4:47 PM 26.6 °F 21.2 °F 10.4 °F 51% 30.34 in 10.0 mi East 4.6 mph - N/A   Partly Cloudy
5:55 PM 24.8 °F - 14.0 °F 64% 30.32 in 10.0 mi Calm Calm - N/A   Clear
6:48 PM 24.8 °F - 12.2 °F 59% 30.32 in 10.0 mi Calm Calm - N/A   Clear
7:55 PM 23.0 °F - 12.2 °F 63% 30.33 in 10.0 mi Calm Calm - N/A   Clear
8:15 PM 23.0 °F 17.0 °F 14.0 °F 68% 30.33 in 10.0 mi ENE 4.6 mph - N/A   Clear
8:35 PM 23.0 °F 18.4 °F 14.0 °F 68% 30.33 in 10.0 mi ENE 3.5 mph - N/A   Clear
8:45 PM 23.0 °F - 14.0 °F 68% 30.33 in 10.0 mi Calm Calm - N/A   Clear
8:55 PM 23.0 °F 18.4 °F 14.0 °F 68% 30.33 in 10.0 mi ENE 3.5 mph - N/A   Clear
9:15 PM 23.0 °F 18.4 °F 14.0 °F 68% 30.33 in 10.0 mi ENE 3.5 mph - N/A   Clear
9:35 PM 23.0 °F - 14.0 °F 68% 30.34 in 10.0 mi Calm Calm - N/A   Clear
9:55 PM 23.0 °F - 14.0 °F 68% 30.33 in 10.0 mi Calm Calm - N/A   Clear
10:15 PM 23.0 °F 18.4 °F 14.0 °F 68% 30.33 in 10.0 mi NE 3.5 mph - N/A   Clear
10:35 PM 21.2 °F - 14.0 °F 74% 30.34 in 10.0 mi Calm Calm - N/A   Clear
10:55 PM 21.2 °F - 14.0 °F 74% 30.33 in 10.0 mi Calm Calm - N/A   Clear
11:15 PM 21.2 °F 14.9 °F 14.0 °F 74% 30.33 in 10.0 mi NE 4.6 mph - N/A   Clear
11:35 PM 19.4 °F - 14.0 °F 80% 30.32 in 10.0 mi Calm Calm - N/A   Clear
11:55 PM 19.4 °F 14.3 °F 14.0 °F 80% 30.32 in 10.0 mi NE 3.5 mph - N/A   Clear